Regional Weather Roundup
Issued by NWS

Home | Current Version | Previous Version | Graphics & Text | Print | Product List | Glossary On
Versions: 1 2 3 4 5 6 7 8 9 10 11 12 13 14 15 16 17 18 19 20 21 22 23 24 25 26 27 28 29 30 31 32 33 34 35 36 37 38 39 40 41 42 43 44 45 46 47 48 49 50
000
ASUS45 KTFX 242104
RWRMT
MONTANA HOURLY WEATHER ROUNDUP
NATIONAL WEATHER SERVICE GREAT FALLS MT
304 PM MDT THU JUL 24 2014

NOTE: "FAIR" INDICATES FEW OR NO CLOUDS BELOW 12000 FEET WITH NO
SIGNIFICANT WEATHER AND/OR OBSTRUCTIONS TO VISIBILITY.

* THESE STATIONS ARE NOT UNDER NWS QUALITY CONTROL. THEY DO NOT
   REPORT WEATHER SUCH AS PRECIPITATION OR FOG.

MTZ001>007-043-242200-
WEST OF THE DIVIDE
CITY           SKY/WX    TMP DP  RH WIND       PRES   REMARKS
KALISPELL      PTCLDY    64  39  40 SW16G29   30.07R
MISSOULA       PTCLDY    68  34  28 W8G23     30.13S
BUTTE          PTCLDY    70  36  29 W18G30    30.08S
MULLAN PASS    LGT RAIN  41  37  86 S8G22     30.19S
* ESSEX        N/A       57  37  47 S6G14      N/A
* LINCOLN      N/A       63  39  41 W7G17      N/A
* LOOKOUT PASS N/A       49  39  69 S9         N/A
* POLSON       N/A       66  40  39 W5G13      N/A
* RONAN APT    PTCLDY    66  39  37 W10G23     N/A
* SEELEY LAKE  N/A       63  34  34 W8G22      N/A
* THOMP F APT  SUNNY     77  26  15 S18G37     N/A
$$

MTZ008-052>055-242200-
SOUTHWEST MONTANA
CITY           SKY/WX    TMP DP  RH WIND       PRES   REMARKS
BOZEMAN        PTCLDY    75  50  42 N14       29.95R
DILLON         SUNNY     75  30  19 W25G36    30.03R
W YELLOWSTONE  SUNNY     73  37  27 SW26G35   30.14F
* THREE FORKS  PTCLDY    75  54  48 NE14G25    N/A
* BOULDER HILL N/A       67  39  36 S6G17      N/A
* MONIDA PASS  N/A       74  25  16 S25G31     N/A
* RAYNOLDS PAS N/A       74  54  50 S26G34     N/A
* WHITEHALL    N/A       81  42  25 W17G32     N/A
* WISE RIVER   N/A       67  37  33 NW21G32    N/A
$$

MTZ009>010-012-014-046-048-049-054-242200-
EAST SLOPES AND CENTRAL MONTANA
CITY           SKY/WX    TMP DP  RH WIND       PRES   REMARKS
CUT BANK       PTCLDY    66  36  33 W41G54    29.91F
GREAT FALLS    CLOUDY    73  27  18 W31G43    29.93F
HELENA         PTCLDY    75  36  24 W23G31    30.03R
MALMSTROM AFB  PTSUNNY   73  30  20 W30G39    29.96F
* CONRAD       PTSUNNY   70  37  30 SW20G30    N/A
* DEARBORN     N/A       69  34  28 S24G32     N/A
* EAST GLACIER N/A       56  34  44 W32G42     N/A
* MONARCH      N/A       65  37  36 W27G42     N/A
* ROGERS PASS  N/A       58  34  41 E12G24     N/A
* SAINT MARY   N/A       58  36  44 SW12G29    N/A
* SWEET GRASS  N/A       67  30  25 SW30G43    N/A
$$

MTZ011-013-016-021-035-040-045-047-050-051-242200-
NORTH CENTRAL MONTANA
CITY           SKY/WX    TMP DP  RH WIND       PRES   REMARKS
HAVRE          TSTM      64  52  65 W24G33    29.91R
LEWISTOWN      PTCLDY    79  52  39 NW13G21   29.91R
* CHESTER      N/A       61  41  48 W16G34     N/A
* DENTON       N/A       73  42  33 W29G40     N/A
* JUDITH GAP   N/A       74  52  46 VRB21G27    N/A
* LOMA         N/A       64  47  54 W19G27     N/A
$$

MTZ017>020-022>027-061-062-242200-
NORTHEAST MONTANA
CITY           SKY/WX    TMP DP  RH WIND       PRES   REMARKS
GLASGOW        SUNNY     91  57  32 S10G21    29.66F
GLENDIVE       PTCLDY    91  64  41 SE13      29.71F HI  93
JORDAN         SUNNY     97  54  24 W13G28    29.67F
SIDNEY         PTCLDY    86  66  51 S12       29.72S HI  88
WOLF POINT     PTCLDY    91  61  37 S8G20     29.67F
* BEAVER HILL  N/A       82  67  61 SE19G27    N/A   HI  85
* CIRCLE       N/A       92  66  42 S1G10      N/A   HI  95
* LINDSAY DVD  N/A       87  64  46 SE12       N/A   HI  88
* NAVAJO       N/A       83  62  49 SE9        N/A   HI  84
* SACO         N/A       90  61  38 W11G17     N/A
$$

MTZ028>042-056>058-242200-
SOUTHCENTRAL AND SOUTHEAST MONTANA
CITY           SKY/WX    TMP DP  RH WIND       PRES   REMARKS
BAKER          SUNNY     90  63  41 VRB5      29.76F HI  91
BILLINGS       PTCLDY    99  36  11 W24G39    29.76F
LIVINGSTON     PTCLDY    88  41  19 W25G35    29.89R
MILES CITY     SUNNY     99  54  22 VRB5      29.68F
* LAUREL APT   SUNNY     97  37  12 SW17G25    N/A
* ROUNDUP APT  SUNNY     91  52  26 W8         N/A
* ALZADA       N/A       98  59  27 S1         N/A
* HYSHAM       N/A       95  43  17 NW13G18    N/A
* LAME DEER    N/A       93  45  19 W1G14      N/A
* REED POINT   N/A       94  36  13 W26G39     N/A
* ROSCOE HILL  N/A       88  31  13 SW16G36    N/A
$$

REGIONAL REPORTS...DAKOTAS
CITY           SKY/WX    TMP DP  RH WIND       PRES   REMARKS
WILLISTON      PTCLDY    82  63  53 S8        29.71R HI  83
DICKINSON      CLOUDY    79  66  65 NE12      29.79F
CROSBY         SUNNY     79  70  74 SE9       29.74F
TIOGA          SUNNY     77  68  74 SE12G21   29.78R
WATFORD CITY   SUNNY     77  66  69 SE21G26   29.68R
BISMARCK       CLOUDY    79  64  60 SE17      29.79F
GRAND FORKS    PTCLDY    75  57  54 S13G23    29.89R
FARGO          PTSUNNY   75  63  66 S10G23    29.88F
BUFFALO SD     SUNNY     88  68  52 SE9       29.70F HI  92
RAPID CITY     PTCLDY    91  66  44 VRB5      29.77F HI  94
$$

REGIONAL REPORTS...WYOMING/IDAHO/WASHINGTON
CITY           SKY/WX    TMP DP  RH WIND       PRES   REMARKS
GILLETTE       PTSUNNY  100  37  11 W20G26    29.83F
SHERIDAN       PTSUNNY   93  52  25 CALM      29.78F
YELLOWSTONE LA SUNNY     70  28  21 VRB7G20   30.26F
SALMON         SUNNY     79  32  18 SW16      30.00S
MULLAN PASS    LGT RAIN  41  37  86 S8G22     30.19S
SAND POINT     CLOUDY    55  50  83 SW5       30.11S
SPOKANE        CLOUDY    63  41  45 SW22      30.12R
$$

REGIONAL REPORTS...ALBERTA
CITY           SKY/WX    TMP DP  RH WIND       PRES   REMARKS
MEDICINE HAT   TSTM      64  45  50 SW21G37   29.85R

$$



USA.gov is the U.S. government's official web portal to all federal, state and local government web resources and services.